Content
SEND FEEDBACK

Daily
Averages
Monthly
Summary
United States of America

UPI, GUAM


Home > North America > United States > Guam
Elevation: 16 meters     Latitude: 13 34N     Longitude: 144 55E

WEATHER
 
SELECT A DAY
Number of Records: 214,141;   Date Range: 1/1/95 - 10/30/14
 
SHARE

PRINT THIS DATA

[ ← Previous Day ]
WEATHER ALMANAC - 1 JANUARY, 2013
[ Next Day → ]
[ °F ]   °C
Weather ElementAverageHighLow
Temperature27.8 °C29.4 °C (3:54 pm)26.1 °C (3:54 am)
Dewpoint25.4 °C26.1 °C (10:54 am)23.9 °C (11:54 pm)
Humidity87.4 %94 % (8:24 pm)77 % (3:54 pm)
Barometer1011.2 hPa1013.2 hPa (9:30 pm)1009.1 hPa (2:54 am)
Wind Speed26.4 km/h37 km/h (1:54 pm)
Wind Gust46.3 km/h (12:54 pm)
Weather ElementAverage
Visibility15 km
Wind DirectionENE (80 °)

Weather ElementTotal
Precipitation13.72 mm
Cooling Degree Days9.4 (Base 18.3)
Growing Degree Days17.8 (Base 10)
Averaged from 52 records on 1 January, 2013
WEATHER CONDITIONS BREAKOUT
WIND DIRECTION BREAKOUT
WEATHER BY HOUR - 1 JANUARY, 2013
[ °F ]   °C
Local TimeTemperatureDewpointHumidityBarometerVisibilityWind DirectionWind SpeedGust SpeedPrecipitationEventsConditions
1:54 AM27.2 °C24.4 °C85 %1009.5 hPa16.1 kmENE (70°)25.9 km/hPartly Cloudy
2:54 AM27.2 °C24.4 °C85 %1009.1 hPa16.1 kmENE (70°)25.9 km/hMostly Cloudy
3:04 AM27 °C25 °C89 %1009.8 hPa12.9 kmEast (80°)22.2 km/h0 mmRainLight Rain
3:24 AM27 °C25 °C89 %1009.8 hPa16.1 kmENE (70°)24.1 km/h38.9 km/h1.02 mmMostly Cloudy
3:54 AM26.1 °C24.4 °C90 %1009.1 hPa16.1 kmENE (70°)24.1 km/h1.02 mmClear
4:54 AM26.7 °C25 °C90 %1009.5 hPa16.1 kmENE (70°)29.6 km/h42.6 km/hMostly Cloudy
5:29 AM27 °C25 °C89 %1010.5 hPa16.1 kmENE (70°)29.6 km/hMostly Cloudy
5:54 AM26.7 °C25 °C90 %1009.8 hPa16.1 kmENE (70°)31.5 km/h42.6 km/h0 mmMostly Cloudy
6:08 AM27 °C25 °C89 %1010.5 hPa16.1 kmEast (80°)27.8 km/h40.7 km/hScattered Clouds
6:20 AM27 °C25 °C89 %1010.8 hPa11.3 kmEast (80°)24.1 km/h38.9 km/h0 mmRainLight Rain
6:32 AM27 °C25 °C89 %1010.8 hPa16.1 kmEast (80°)25.9 km/h35.2 km/h0 mmScattered Clouds
6:54 AM26.7 °C25 °C90 %1010.2 hPa16.1 kmEast (80°)22.2 km/h0 mmScattered Clouds
7:16 AM27 °C25 °C89 %1011.5 hPa16.1 kmEast (80°)24.1 km/hMostly Cloudy
7:36 AM27 °C25 °C89 %1011.5 hPa16.1 kmENE (70°)25.9 km/h38.9 km/h0 mmMostly Cloudy
7:54 AM27.2 °C25.6 °C91 %1011.2 hPa16.1 kmENE (70°)25.9 km/h0 mmScattered Clouds
8:41 AM28 °C26 °C89 %1012.5 hPa16.1 kmEast (80°)31.5 km/h40.7 km/h0.25 mmMostly Cloudy
8:54 AM27.8 °C25.6 °C88 %1011.9 hPa16.1 kmEast (90°)22.2 km/h0.25 mmScattered Clouds
9:15 AM28 °C26 °C89 %1012.5 hPa16.1 kmEast (80°)27.8 km/h40.7 km/hMostly Cloudy
9:51 AM28 °C26 °C89 %1012.5 hPa16.1 kmEast (80°)29.6 km/h42.6 km/hMostly Cloudy
9:54 AM28.3 °C25.6 °C85 %1011.9 hPa16.1 kmEast (80°)29.6 km/h42.6 km/hMostly Cloudy
10:10 AM28 °C26 °C89 %1012.5 hPa4.8 kmEast (80°)31.5 km/h42.6 km/h0.76 mmRainLight Rain
10:54 AM27.8 °C26.1 °C90 %1011.9 hPa6.4 kmEast (90°)20.4 km/h40.7 km/h1.27 mmRainLight Rain
11:14 AM29 °C26 °C84 %1012.2 hPa11.3 kmEast (90°)25.9 km/h44.4 km/h0 mmScattered Clouds
11:32 AM28 °C26 °C89 %1012.2 hPa6.4 kmEast (90°)22.2 km/h0.25 mmRainLight Rain
11:47 AM28 °C26 °C89 %1011.9 hPa16.1 kmEast (80°)31.5 km/h42.6 km/h0.25 mmScattered Clouds
11:54 AM28.9 °C26.1 °C85 %1011.2 hPa16.1 kmEast (90°)29.6 km/h42.6 km/h0.25 mmPartly Cloudy
12:43 PM28 °C26 °C89 %1011.2 hPa4.8 kmENE (70°)27.8 km/h40.7 km/h0.76 mmRainRain
12:54 PM28.3 °C26.1 °C88 %1010.2 hPa16.1 kmEast (80°)29.6 km/h46.3 km/h0.76 mmMostly Cloudy
1:25 PM29 °C26 °C84 %1010.5 hPa16.1 kmENE (70°)29.6 km/h44.4 km/hMostly Cloudy
1:33 PM29 °C26 °C84 %1010.5 hPa16.1 kmEast (90°)29.6 km/h40.7 km/hScattered Clouds
1:40 PM29 °C26 °C84 %1010.5 hPa16.1 kmEast (80°)29.6 km/h42.6 km/hMostly Cloudy
1:52 PM29 °C26 °C84 %1010.5 hPa16.1 kmEast (80°)33.3 km/h44.4 km/hScattered Clouds
1:54 PM28.9 °C25.6 °C82 %1009.8 hPa16.1 kmEast (80°)37 km/h46.3 km/hScattered Clouds
2:49 PM29 °C26 °C84 %1010.2 hPa16.1 kmENE (70°)29.6 km/h42.6 km/hMostly Cloudy
2:54 PM28.9 °C25.6 °C82 %1009.5 hPa16.1 kmEast (80°)27.8 km/h42.6 km/h0 mmMostly Cloudy
3:20 PM29 °C26 °C84 %1010.2 hPa16.1 kmEast (90°)27.8 km/h40.7 km/hScattered Clouds
3:54 PM29.4 °C25 °C77 %1009.1 hPa16.1 kmEast (90°)24.1 km/h38.9 km/hScattered Clouds
4:51 PM29 °C25 °C79 %1010.8 hPa16.1 kmEast (90°)25.9 km/h40.7 km/hMostly Cloudy
4:54 PM28.9 °C25 °C79 %1010.2 hPa16.1 kmEast (80°)24.1 km/h40.7 km/hScattered Clouds
5:54 PM28.3 °C25.6 °C85 %1010.2 hPa16.1 kmENE (70°)25.9 km/h37 km/hScattered Clouds
6:19 PM28 °C25 °C84 %1011.5 hPa16.1 kmEast (80°)35.2 km/h46.3 km/h0 mmRainLight Rain
6:27 PM27 °C25 °C89 %1011.5 hPa16.1 kmEast (80°)25.9 km/h0 mmPartly Cloudy
6:54 PM27.8 °C25.6 °C88 %1011.2 hPa16.1 kmEast (90°)24.1 km/h0 mmPartly Cloudy
7:54 PM27.2 °C25 °C88 %1011.9 hPa16.1 kmEast (80°)24.1 km/h38.9 km/hScattered Clouds
8:24 PM27 °C26 °C94 %1012.5 hPa16.1 kmEast (90°)20.4 km/h29.6 km/h2.29 mmRainLight Rain
8:43 PM27 °C26 °C94 %1012.9 hPa16.1 kmEast (80°)22.2 km/h35.2 km/h2.29 mmScattered Clouds
8:54 PM27.2 °C25.6 °C91 %1012.2 hPa16.1 kmEast (80°)20.4 km/h37 km/h2.29 mmScattered Clouds
9:16 PM27 °C26 °C94 %1012.9 hPa16.1 kmEast (80°)22.2 km/hMostly Cloudy
9:30 PM27 °C25 °C89 %1013.2 hPa16.1 kmEast (90°)22.2 km/hScattered Clouds
9:54 PM27.2 °C25.6 °C91 %1012.5 hPa16.1 kmEast (80°)25.9 km/h38.9 km/hScattered Clouds
10:54 PM27.2 °C25.6 °C91 %1012.5 hPa16.1 kmEast (90°)16.7 km/h31.5 km/hScattered Clouds
11:54 PM26.1 °C23.9 °C88 %1012.5 hPa16.1 kmEast (80°)18.5 km/h0 mmScattered Clouds
Hourly data recorded from PGUM, located 0 kilometers away from Upi, Guam







STORIES FROM OUR PARTNERS